Theta_e
331 332 331 332 329 327 326 326 321 315 317 317 318 317 314 313 314 316 311 311 315 318 320 321 320 319 318 316 315 313 313 311 311 311 311 311 311 311 311 312 312 313 313
332 331 330 327 325 323 322 318 314 312 315 316 313 310 308 308 309 312 310 304 307 310 313 315 315 315 314 313 313 311 311 310 309 309 309 309 309 309 310 310 310 311 311
332 329 325 321 318 318 320 318 311 311 314 313 308 305 304 303 303 304 308 305 300 302 305 308 309 310 311 311 310 310 309 308 308 307 307 307 307 308 308 308 308 309 309
326 321 317 313 312 316 313 310 308 308 311 311 304 300 298 299 299 301 303 303 300 296 296 300 302 304 306 307 308 308 307 307 306 305 305 305 305 306 306 306 307 307 307
321 315 312 309 310 311 309 306 305 308 308 304 296 295 295 297 298 299 297 296 296 295 293 293 294 296 300 303 304 305 305 305 304 303 303 303 304 304 305 305 305 306 306
314 309 307 306 307 307 305 303 302 303 302 299 293 292 294 297 299 299 296 295 294 293 291 290 291 290 293 297 300 302 303 303 303 302 302 302 302 303 303 304 304 304 304
308 306 304 303 303 302 302 301 298 298 297 297 295 294 294 296 297 297 297 295 293 291 290 289 288 289 289 292 295 297 299 301 301 300 300 300 300 301 302 302 303 303 303
302 302 301 300 299 297 295 295 298 295 294 295 297 299 295 294 294 294 295 293 292 291 289 287 286 286 287 287 289 293 295 297 298 298 298 298 299 299 300 301 301 302 302
300 299 299 296 295 294 292 292 294 296 293 295 295 295 295 294 294 292 291 292 291 291 289 288 286 286 286 286 287 287 290 292 294 295 296 296 297 297 298 299 299 300 300
296 295 294 293 293 292 291 292 293 295 298 294 295 293 293 293 291 290 290 289 290 289 289 288 286 285 285 285 285 286 288 289 290 292 293 294 295 296 297 298 298 298 299
293 292 292 291 291 291 291 292 292 293 292 291 291 291 292 289 289 287 288 287 288 289 289 287 286 285 284 284 284 284 286 287 288 289 290 291 292 293 295 296 297 297 297
290 290 290 290 290 290 290 291 291 290 289 289 289 288 287 285 284 285 284 284 283 287 288 287 285 285 284 284 284 284 285 286 286 288 288 289 289 291 292 294 294 295 296
288 288 289 289 289 289 289 290 288 288 287 286 286 285 285 284 285 284 283 282 281 285 286 287 286 285 284 284 283 283 283 285 285 286 287 287 288 289 289 291 292 292 293
288 288 288 288 288 288 288 288 286 286 286 285 284 284 283 283 284 283 281 280 279 282 283 283 286 285 284 283 283 283 281 283 284 285 286 286 287 287 288 288 289 290 290
288 288 287 287 287 287 287 286 285 284 285 285 284 283 282 282 283 283 282 281 278 276 277 281 280 284 283 283 283 281 281 282 283 284 284 285 285 286 286 286 287 287 288
287 286 286 286 286 285 285 285 284 284 283 283 283 282 281 282 282 282 281 280 280 277 275 280 280 282 283 282 283 281 280 281 281 282 283 283 284 284 284 284 285 285 285
285 285 285 285 284 284 284 284 283 282 281 281 282 281 280 281 280 280 280 280 279 279 276 278 280 281 281 280 280 280 279 278 279 281 281 282 282 281 281 282 282 282 283
285 285 284 284 283 283 283 282 281 282 281 280 280 280 279 280 279 280 279 279 279 279 277 275 278 279 279 280 279 277 277 278 277 278 280 280 279 279 279 279 279 280 280
284 284 283 282 282 282 282 282 282 281 280 280 279 279 278 279 278 279 278 278 278 278 278 277 277 279 278 278 276 276 276 275 275 277 277 277 278 277 277 277 277 277 276
282 282 282 282 281 281 281 281 281 280 280 279 279 279 279 278 278 277 277 277 277 278 278 277 276 276 275 276 275 272 271 273 272 273 274 274 274 274 274 275 275 274 275
281 281 281 281 281 281 280 280 280 280 279 279 279 278 278 277 277 277 276 276 277 277 277 275 274 273 273 272 270 271 269 270 270 271 270 269 268 269 269 272 272 273 275
282 282 282 282 282 280 281 280 280 279 278 277 277 278 278 278 278 278 278 279 279 277 274 273 272 271 271 270 270 269 268 266 264 270 266 266 268 267 268 269 272 273 274
281 281 281 281 281 282 282 281 280 279 278 278 278 277 277 277 278 277 278 279 278 277 276 273 270 270 269 269 269 267 266 265 264 266 266 263 266 265 267 268 271 273 273
280 280 280 280 280 280 282 281 280 280 279 279 278 278 277 276 277 276 277 276 275 274 274 273 272 271 270 270 269 267 266 265 265 265 266 260 265 264 266 266 271 271 272
279 278 278 278 278 278 279 279 279 279 278 278 278 277 277 276 277 278 276 273 273 272 274 274 274 273 272 271 270 266 262 261 259 261 264 263 263 262 264 263 266 270 271
278 278 277 278 278 277 278 278 279 279 277 277 277 277 277 277 277 278 274 271 269 270 270 269 267 268 268 267 269 266 264 260 259 258 264 261 261 261 258 262 264 264 265
Wind_Speed
5 4 3 4 4 3 4 3 4 4 5 6 7 8 9 8 8 7 8 22 22 22 21 21 20 19 19 19 19 18 19 18 19 19 19 19 20 20 19 20 20 21 21
4 3 4 4 3 3 2 4 4 3 4 6 8 8 8 8 8 8 9 12 24 23 21 20 19 19 17 17 17 16 17 18 19 18 19 19 20 20 20 20 20 21 21
5 5 4 3 3 3 2 3 4 3 5 6 8 7 7 10 8 9 7 7 10 21 21 21 20 19 18 18 18 18 17 18 18 19 19 19 20 20 20 20 21 21 21
6 6 3 4 3 2 3 3 3 3 4 5 6 7 7 7 8 8 6 6 7 7 13 19 19 19 19 19 18 18 18 18 18 19 19 19 20 20 20 20 20 21 21
7 6 4 4 4 3 3 3 4 3 6 6 7 6 5 4 5 6 8 9 9 8 6 11 16 18 18 19 19 19 19 18 19 19 19 20 20 20 20 20 20 21 21
6 6 5 5 4 4 5 5 6 7 5 6 7 6 3 3 3 5 7 7 8 8 8 8 6 7 14 17 19 20 20 19 19 19 20 20 20 20 20 21 21 21 21
6 6 5 6 5 5 5 6 6 6 5 4 4 2 3 4 5 4 5 6 7 7 8 8 6 5 6 14 17 19 20 20 20 19 19 20 21 21 21 21 22 21 22
6 6 6 7 7 6 6 5 3 3 3 1 0 4 5 4 4 4 4 4 6 5 6 8 8 8 6 6 9 18 21 21 20 20 20 20 21 22 22 22 23 23 22
9 9 9 7 7 5 5 4 3 3 3 2 5 3 2 1 6 4 4 3 4 4 4 4 6 7 7 6 9 12 19 19 19 20 20 21 21 22 22 22 23 24 23
9 9 9 8 7 5 6 5 4 4 2 5 4 5 6 5 2 4 4 3 3 3 3 3 4 6 7 5 8 14 18 19 19 20 21 22 23 23 23 24 24 24 22
9 10 9 9 9 6 6 7 7 8 7 6 6 3 3 4 6 3 2 3 4 3 3 3 3 4 6 6 5 10 18 17 19 21 20 21 23 24 24 24 26 24 25
6 9 10 9 8 8 8 6 8 10 8 8 6 6 6 5 5 4 2 4 3 2 2 2 3 3 4 5 8 14 17 16 18 21 20 20 22 23 24 25 26 25 25
8 8 8 8 7 7 8 6 8 10 9 7 7 6 6 6 5 4 3 2 2 2 1 4 2 2 5 5 7 13 16 17 19 21 19 20 23 24 25 27 26 26 24
8 7 9 7 9 7 7 8 6 7 8 7 10 7 6 5 5 5 5 5 4 3 2 3 2 3 4 5 9 16 10 17 22 21 21 22 24 26 27 28 26 26 26
8 9 8 8 8 8 8 7 6 7 7 7 7 7 5 5 4 4 4 4 3 3 5 2 3 6 6 6 9 9 10 18 23 22 22 23 26 28 29 28 27 27 30
10 10 8 7 8 8 7 8 7 6 7 5 5 6 5 4 4 3 3 3 2 3 4 6 7 9 8 8 10 10 11 18 20 20 24 26 27 29 29 27 27 30 32
9 10 9 7 8 7 7 7 7 7 7 6 5 6 6 5 3 3 3 2 3 4 6 7 7 8 10 10 9 9 9 10 9 21 25 26 28 29 26 27 31 32 31
10 9 9 8 8 7 6 7 7 5 6 6 6 5 4 3 3 3 3 5 4 5 6 10 9 8 9 9 9 10 9 8 10 17 25 26 27 22 27 32 32 31 30
9 9 8 7 7 7 7 6 6 5 6 5 4 4 4 3 3 4 4 5 5 5 6 8 8 7 8 8 9 9 9 11 9 19 23 26 20 24 30 29 29 29 28
9 8 7 7 7 7 6 6 5 5 4 4 4 3 4 4 4 6 6 7 6 7 7 8 8 8 8 8 8 10 9 9 10 10 17 18 22 27 26 28 26 26 30
9 8 8 7 6 6 4 5 4 4 4 3 3 3 3 4 2 5 5 7 8 7 7 8 8 9 8 8 10 9 10 10 9 11 10 10 11 10 12 17 22 29 32
8 7 7 7 6 5 9 7 4 4 3 2 2 2 2 2 2 9 10 11 11 8 8 8 8 9 10 10 8 10 10 11 11 5 11 11 10 10 10 11 27 32 32
7 7 6 6 6 6 7 7 4 3 1 2 2 3 3 2 4 6 11 13 6 8 9 9 10 10 11 11 11 11 11 10 11 10 11 11 10 10 11 13 29 32 31
6 6 6 5 5 4 4 3 2 2 2 2 3 3 4 5 5 7 10 4 5 7 9 6 9 10 10 11 10 10 11 11 10 9 8 11 9 11 12 14 30 30 32
6 5 5 5 4 4 3 2 2 2 2 3 3 4 5 6 9 13 4 5 7 8 8 12 16 17 16 16 12 7 7 9 10 9 10 9 10 13 12 15 13 27 33
6 5 6 5 5 4 6 4 3 2 3 3 4 4 2 5 11 8 7 7 7 9 9 8 8 9 10 10 13 7 7 8 8 8 5 8 11 9 8 11 14 14 13
Wind_Direction
186 192 122 80 77 79 39 31 65 55 69 62 68 71 72 73 83 92 62 48 52 50 50 50 49 49 47 42 38 35 33 28 25 21 19 17 15 12 9 6 4 4 3
186 142 128 95 84 72 68 51 52 75 77 84 70 74 74 70 70 88 91 61 56 52 48 48 47 44 44 40 41 33 28 27 23 19 17 15 11 9 7 4 4 3 1
125 106 99 116 75 79 101 111 85 89 103 91 84 74 56 52 56 56 65 100 77 57 53 49 46 44 41 38 34 32 28 27 21 17 14 13 9 7 4 2 1 359 358
132 114 94 104 111 105 90 85 99 109 107 109 87 61 65 64 71 69 67 62 60 79 60 54 48 42 40 36 30 27 24 24 21 16 12 10 6 4 0 360 358 355 354
126 114 119 111 125 110 95 91 73 91 98 87 88 75 74 72 86 85 85 80 69 56 64 67 61 44 39 35 29 23 21 19 18 13 10 7 2 0 357 356 353 352 351
123 114 117 110 109 104 93 79 88 54 49 91 97 95 105 118 102 88 91 81 73 68 61 50 33 58 41 35 29 22 18 14 13 10 6 4 359 355 354 352 351 349 346
103 109 107 105 91 82 78 89 91 89 58 76 109 104 131 97 87 90 90 93 84 70 59 56 41 25 26 31 24 21 16 12 9 7 3 0 356 353 351 349 348 345 342
89 91 91 88 82 89 72 57 58 112 88 43 241 199 167 153 106 84 82 84 82 79 67 59 47 35 26 34 20 18 13 9 5 2 360 357 355 351 346 344 346 341 338
78 80 85 87 80 81 82 69 47 100 126 91 53 339 277 69 140 139 96 76 80 81 80 73 55 37 25 29 18 17 6 5 2 360 357 354 353 348 342 342 343 336 334
69 74 77 74 69 62 64 61 35 28 56 111 95 56 45 14 317 167 156 120 102 77 70 65 44 42 24 20 21 10 360 -0 359 356 354 353 350 344 341 340 337 332 333
74 75 74 71 67 63 53 53 57 61 55 67 48 35 54 66 19 3 103 128 155 115 105 67 44 34 20 15 4 0 355 353 356 353 350 349 346 343 340 337 333 332 330
84 74 75 70 61 57 63 61 56 62 68 69 67 57 50 43 31 13 355 12 330 87 26 64 53 30 17 0 358 1 345 347 351 347 344 341 343 341 337 334 329 332 326
102 95 88 81 73 81 73 76 71 65 60 69 67 67 64 54 35 16 24 357 312 22 260 107 106 53 10 355 347 355 336 341 345 341 340 338 340 338 335 334 327 330 328
109 99 91 103 96 88 86 75 72 77 73 71 72 66 68 59 47 35 36 352 326 308 286 68 58 92 12 360 336 345 332 334 339 335 338 336 335 335 334 331 329 326 329
110 113 104 100 97 90 84 86 82 80 71 68 69 65 65 59 48 50 43 29 4 320 321 28 358 353 355 343 332 343 327 339 329 333 333 331 330 332 331 329 327 330 324
112 113 100 92 96 95 95 91 84 79 82 71 74 78 71 60 56 48 32 20 346 317 291 355 332 332 340 327 329 334 331 328 327 327 325 327 327 327 328 326 326 326 321
118 105 104 109 103 100 93 93 91 86 87 88 78 73 66 42 41 27 8 331 317 319 301 308 313 323 323 323 329 330 326 321 317 322 324 322 323 324 323 327 322 320 319
102 108 116 114 105 102 98 97 96 97 97 83 72 72 62 38 25 10 347 339 319 321 312 306 310 318 315 327 327 330 322 318 330 321 320 322 319 317 327 322 320 318 319
108 113 112 111 101 101 105 98 98 92 83 81 75 67 53 14 2 0 342 328 324 316 304 299 303 310 325 330 326 319 326 322 321 319 320 319 322 328 322 317 319 317 319
113 106 103 101 103 105 104 98 99 99 94 84 65 50 38 9 357 359 344 328 325 313 307 310 318 326 329 331 320 328 321 313 317 322 313 331 328 322 319 319 318 316 317
103 115 115 111 110 106 97 101 103 101 91 89 68 34 21 25 339 341 328 323 322 312 320 328 325 324 319 332 330 329 315 314 320 312 324 326 314 314 315 311 314 312 316
120 116 113 115 105 101 111 99 88 92 90 64 21 359 300 247 276 322 318 304 289 317 330 326 320 314 328 330 326 324 319 320 317 323 326 312 313 315 302 311 310 319 316
123 119 111 115 108 117 122 113 91 80 48 37 357 316 321 330 305 318 311 314 59 357 333 327 320 324 322 326 323 322 317 311 307 316 313 311 317 299 311 305 308 313 314
120 119 114 107 104 92 131 139 139 338 328 353 323 312 309 307 318 318 310 354 349 334 328 331 314 316 315 318 320 314 315 307 301 304 320 301 305 309 310 299 302 308 311
113 109 102 103 120 116 86 45 349 307 289 298 313 310 321 322 333 320 40 352 337 323 337 314 315 315 315 318 316 324 314 317 311 315 310 295 310 306 306 298 300 309 315
105 101 95 89 54 94 49 25 333 300 305 316 308 296 270 283 312 6 14 354 322 319 331 314 312 309 312 311 321 315 311 305 305 305 301 315 308 321 305 297 307 303 303